This is the latest recevied weather packets stored in our database for station/object N4ZIQ. If no packets are shown the sender has not sent any weather packets the latest 10 day(s).
| Time | Temp. | Humidity | Pressure | Rain* | Wind** | Luminosity | Snow |
|---|---|---|---|---|---|---|---|
| 1777741548 | 30° C | 67% | 1011.1 hPa | 0 mm | - | 680 W/m² | - |
| 1777741249 | 30.56° C | 65% | 1011.1 hPa | 0 mm | - | 675 W/m² | - |
| 1777740945 | 30° C | 67% | 1011.1 hPa | 0 mm | - | 652 W/m² | - |
| 1777740645 | 29.44° C | 67% | 1011.3 hPa | 0 mm | - | 598 W/m² | - |
| 1777740360 | 30° C | 67% | 1011.5 hPa | 0 mm | - | 490 W/m² | - |
| 1777740044 | 30° C | 67% | 1011.6 hPa | 0 mm | - | 863 W/m² | - |
| 1777739745 | 29.44° C | 69% | 1011.6 hPa | 0 mm | - | 868 W/m² | - |
| 1777739459 | 29.44° C | 68% | 1011.7 hPa | 0 mm | - | 668 W/m² | - |
| 1777739145 | 28.89° C | 69% | 1011.7 hPa | 0 mm | - | 554 W/m² | - |
| 1777738848 | 28.89° C | 70% | 1011.6 hPa | 0 mm | - | 452 W/m² | - |
| 1777738559 | 28.89° C | 69% | 1011.7 hPa | 0 mm | - | 473 W/m² | - |
| 1777738247 | 28.89° C | 71% | 1011.9 hPa | 0 mm | - | 693 W/m² | - |
| 1777737950 | 28.33° C | 70% | 1011.9 hPa | 0 mm | - | 594 W/m² | - |
| 1777737659 | 28.33° C | 71% | 1012 hPa | 0 mm | - | 501 W/m² | - |
| 1777737349 | 27.78° C | 73% | 1011.9 hPa | 0 mm | - | 420 W/m² | - |
| 1777737045 | 27.78° C | 72% | 1012 hPa | 0 mm | - | 369 W/m² | - |
| 1777736755 | 27.78° C | 71% | 1012 hPa | 0 mm | - | 387 W/m² | - |
| 1777736446 | 27.78° C | 72% | 1011.9 hPa | 0 mm | - | 387 W/m² | - |
| 1777736146 | 27.78° C | 72% | 1011.8 hPa | 0 mm | - | 392 W/m² | - |
| 1777735861 | 27.78° C | 72% | 1011.9 hPa | 0 mm | - | 485 W/m² | - |
| 1777735545 | 27.78° C | 71% | 1012 hPa | 0 mm | - | 462 W/m² | - |
| 1777735245 | 27.78° C | 71% | 1012 hPa | 0 mm | - | 496 W/m² | - |
| 1777734970 | 27.22° C | 71% | 1012 hPa | 0 mm | - | 517 W/m² | - |
| 1777734647 | 27.22° C | 73% | 1012.1 hPa | 0 mm | - | 552 W/m² | - |
| 1777734344 | 26.67° C | 72% | 1012.2 hPa | 0 mm | - | 357 W/m² | - |
* Rain latest hour (hover to see other rain measurements)
** Current wind speed in m/s (hover to see current wind gust speed)